Weather History for Pinedale, WY

Change the Weather History Date:

Sunday, June 23, 2013

  Actual Average (KBPI) Record (KBPI)
Temperature  
Mean Temperature 52 °F 57 °F  
Max Temperature 73 °F 75 °F 90 °F (2012)
Min Temperature 30 °F 39 °F 27 °F (2013)
Degree Days  
Heating Degree Days 14 8  
Month to date heating degree days 256  
Since 1 June heating degree days 256  
Since 1 July heating degree days 10382  
Cooling Degree Days 0 0  
Month to date cooling degree days 0  
Year to date cooling degree days 0  
Since 1 June cooling degree days 0  
Growing Degree Days 2 (Base 50)    
Moisture  
Dew Point 26 °F    
Average Humidity 43    
Maximum Humidity 93    
Minimum Humidity 14    
Precipitation  
Precipitation 0.00 in 0.03 in 0.01 in (1998)
Month to date precipitation 0.65  
Year to date precipitation 3.12  
Sea Level Pressure  
Sea Level Pressure 30.06 in    
Wind  
Wind Speed 5 mph (West)    
Max Wind Speed 20 mph    
Max Gust Speed 32 mph    
Visibility 10 miles    
Events      
T = Trace of Precipitation, MM = Missing Value Source: NWS Daily Summary

Daily Weather History Graph

Daily Weather History Graph

Search for Another Location

Airport:

Trip Planner

Search our weather history database for the weather conditions in past years. The results will help you decide how hot, cold, wet, or windy it might be!

Date:

Astronomy

Jun. 23, 2013 Rise Set
Actual Time 5:41 AM MDT 9:01 PM MDT
Civil Twilight 5:06 AM MDT 9:36 PM MDT
Nautical Twilight 4:20 AM MDT 10:22 PM MDT
Astronomical Twilight 3:24 AM MDT 11:18 PM MDT
Moon 9:14 PM MDT (6/23) 6:04 AM MDT (6/23)
Length of Visible Light 16h 30m
Length of Day
15h 20m
Full, 100% of the Moon is Illuminated
Jun 23
Full
Jun 29
Last Quarter
Jul 8
New
Jul 15
First Quarter
Jul 22
Full

Hourly Weather History & Observations

Time (MDT) Temp. Windchill Dew Point Humidity Pressure Visibility Wind Dir Wind Speed Gust Speed Precip Events Conditions
12:15 AM 41.0 °F 38.0 °F 30.2 °F 65% 30.16 in 10.0 mi NW 4.6 mph - N/A   Scattered Clouds
12:35 AM 37.4 °F - 28.4 °F 70% 30.16 in 10.0 mi Calm Calm - N/A   Mostly Cloudy
12:55 AM 39.2 °F 35.9 °F 30.2 °F 70% 30.15 in 10.0 mi NW 4.6 mph - N/A   Mostly Cloudy
1:15 AM 39.2 °F 37.0 °F 28.4 °F 65% 30.15 in 10.0 mi WSW 3.5 mph - N/A   Scattered Clouds
1:35 AM 37.4 °F 34.9 °F 28.4 °F 70% 30.16 in 10.0 mi WNW 3.5 mph - N/A   Scattered Clouds
1:55 AM 37.4 °F 31.4 °F 28.4 °F 70% 30.15 in 10.0 mi NW 8.1 mph - N/A   Scattered Clouds
2:15 AM 33.8 °F 26.4 °F 28.4 °F 81% 30.15 in 10.0 mi West 9.2 mph - N/A   Clear
2:35 AM 32.0 °F 27.5 °F 30.2 °F 93% 30.15 in 10.0 mi WNW 4.6 mph - N/A   Clear
2:55 AM 33.8 °F 30.8 °F 30.2 °F 87% 30.16 in 10.0 mi NW 3.5 mph - N/A   Mostly Cloudy
3:15 AM 32.0 °F 25.6 °F 28.4 °F 87% 30.15 in 10.0 mi NW 6.9 mph - N/A   Mostly Cloudy
3:35 AM 32.0 °F 26.4 °F 26.6 °F 80% 30.15 in 10.0 mi NW 5.8 mph - N/A   Mostly Cloudy
3:55 AM 32.0 °F 26.4 °F 26.6 °F 80% 30.15 in 10.0 mi NW 5.8 mph - N/A   Scattered Clouds
4:15 AM 30.2 °F 25.4 °F 26.6 °F 86% 30.15 in 10.0 mi NW 4.6 mph - N/A   Scattered Clouds
4:35 AM 30.2 °F 25.4 °F 28.4 °F 93% 30.14 in 10.0 mi West 4.6 mph - N/A   Clear
4:55 AM 30.2 °F 24.3 °F 28.4 °F 93% 30.14 in 10.0 mi West 5.8 mph - N/A   Mostly Cloudy
5:15 AM 30.2 °F 23.4 °F 28.4 °F 93% 30.14 in 10.0 mi West 6.9 mph - N/A   Overcast
5:35 AM 30.2 °F 24.3 °F 26.6 °F 86% 30.14 in 10.0 mi West 5.8 mph - N/A   Mostly Cloudy
5:55 AM 30.2 °F 24.3 °F 26.6 °F 86% 30.14 in 10.0 mi WNW 5.8 mph - N/A   Scattered Clouds
6:15 AM 32.0 °F 27.5 °F 28.4 °F 87% 30.13 in 10.0 mi NW 4.6 mph - N/A   Scattered Clouds
6:35 AM 32.0 °F 24.8 °F 28.4 °F 87% 30.13 in 10.0 mi WNW 8.1 mph - N/A   Clear
6:55 AM 32.0 °F 26.4 °F 28.4 °F 87% 30.13 in 10.0 mi West 5.8 mph - N/A   Clear
7:15 AM 33.8 °F 28.6 °F 28.4 °F 81% 30.13 in 10.0 mi WNW 5.8 mph - N/A   Clear
7:35 AM 37.4 °F 34.9 °F 30.2 °F 75% 30.13 in 10.0 mi NW 3.5 mph - N/A   Clear
7:55 AM 41.0 °F 38.0 °F 30.2 °F 65% 30.13 in 10.0 mi WNW 4.6 mph - N/A   Clear
8:15 AM 46.4 °F - 30.2 °F 53% 30.13 in 10.0 mi Calm Calm - N/A   Clear
8:35 AM 48.2 °F - 30.2 °F 50% 30.13 in 10.0 mi Calm Calm - N/A   Clear
8:55 AM 50.0 °F - 28.4 °F 43% 30.12 in 10.0 mi Calm Calm - N/A   Clear
9:15 AM 53.6 °F - 28.4 °F 38% 30.12 in 10.0 mi Calm Calm - N/A   Clear
9:35 AM 55.4 °F - 28.4 °F 36% 30.11 in 10.0 mi East 6.9 mph - N/A   Scattered Clouds
9:55 AM 55.4 °F - 28.4 °F 36% 30.11 in 10.0 mi SSE 4.6 mph - N/A   Clear
10:15 AM 55.4 °F - 28.4 °F 36% 30.11 in 10.0 mi South 6.9 mph - N/A   Clear
10:35 AM 57.2 °F - 28.4 °F 33% 30.10 in 10.0 mi Calm Calm - N/A   Clear
10:55 AM 59.0 °F - 28.4 °F 31% 30.09 in 10.0 mi West 4.6 mph - N/A   Clear
11:15 AM 59.0 °F - 26.6 °F 29% 30.09 in 10.0 mi Calm Calm - N/A   Clear
11:35 AM 60.8 °F - 24.8 °F 25% 30.08 in 10.0 mi SE 6.9 mph - N/A   Clear
11:55 AM 62.6 °F - 24.8 °F 24% 30.08 in 10.0 mi NW 5.8 mph 16.1 mph N/A   Clear
12:15 PM 62.6 °F - 26.6 °F 26% 30.07 in 10.0 mi Calm Calm - N/A   Clear
12:35 PM 64.4 °F - 23.0 °F 21% 30.06 in 10.0 mi WSW 4.6 mph - N/A   Clear
12:55 PM 64.4 °F - 23.0 °F 21% 30.06 in 10.0 mi Calm Calm - N/A   Clear
1:15 PM 64.4 °F - 23.0 °F 21% 30.05 in 10.0 mi Calm Calm - N/A   Clear
1:35 PM 68.0 °F - 23.0 °F 18% 30.03 in 10.0 mi SW 5.8 mph - N/A   Clear
1:55 PM 68.0 °F - 23.0 °F 18% 30.03 in 10.0 mi WSW 9.2 mph - N/A   Clear
2:15 PM 68.0 °F - 23.0 °F 18% 30.02 in 10.0 mi WSW 9.2 mph 18.4 mph N/A   Clear
2:35 PM 69.8 °F - 23.0 °F 17% 30.01 in 10.0 mi SSW 6.9 mph 17.3 mph N/A   Scattered Clouds
2:55 PM 71.6 °F - 23.0 °F 16% 30.00 in 10.0 mi South 8.1 mph - N/A   Mostly Cloudy
3:15 PM 71.6 °F - 21.2 °F 15% 29.98 in 10.0 mi Calm Calm - N/A   Mostly Cloudy
3:35 PM 71.6 °F - 21.2 °F 15% 29.98 in 10.0 mi West 11.5 mph 21.9 mph N/A   Mostly Cloudy
3:55 PM 73.4 °F - 21.2 °F 14% 29.97 in 10.0 mi West 17.3 mph 24.2 mph N/A   Mostly Cloudy
4:15 PM 71.6 °F - 21.2 °F 15% 29.97 in 10.0 mi SSW 16.1 mph 21.9 mph N/A   Mostly Cloudy
4:35 PM 73.4 °F - 23.0 °F 15% 29.97 in 10.0 mi WSW 17.3 mph 32.2 mph N/A   Scattered Clouds
4:55 PM 73.4 °F - 23.0 °F 15% 29.97 in 10.0 mi WSW 19.6 mph 29.9 mph N/A   Clear
5:15 PM 73.4 °F - 23.0 °F 15% 29.97 in 10.0 mi WSW 19.6 mph 25.3 mph N/A   Clear
5:35 PM 73.4 °F - 24.8 °F 16% 29.96 in 10.0 mi WSW 13.8 mph 24.2 mph N/A   Scattered Clouds
5:55 PM 73.4 °F - 24.8 °F 16% 29.96 in 10.0 mi West 19.6 mph 25.3 mph N/A   Scattered Clouds
6:15 PM 71.6 °F - 24.8 °F 17% 29.95 in 10.0 mi WSW 12.7 mph 19.6 mph N/A   Clear
6:35 PM 69.8 °F - 24.8 °F 18% 29.95 in 10.0 mi WSW 12.7 mph 18.4 mph N/A   Scattered Clouds
6:55 PM 69.8 °F - 23.0 °F 17% 29.95 in 10.0 mi SW 12.7 mph 17.3 mph N/A   Scattered Clouds
7:15 PM 69.8 °F - 23.0 °F 17% 29.95 in 10.0 mi SW 8.1 mph 18.4 mph N/A   Clear
7:35 PM 69.8 °F - 19.4 °F 15% 29.96 in 10.0 mi SW 13.8 mph 19.6 mph N/A   Clear
7:55 PM 68.0 °F - 21.2 °F 17% 29.96 in 10.0 mi SW 12.7 mph 18.4 mph N/A   Clear
8:15 PM 66.2 °F - 21.2 °F 18% 29.96 in 10.0 mi WSW 5.8 mph - N/A   Scattered Clouds
8:35 PM 64.4 °F - 21.2 °F 19% 29.96 in 10.0 mi SW 5.8 mph - N/A   Scattered Clouds
8:55 PM 62.6 °F - 23.0 °F 22% 29.97 in 10.0 mi WSW 3.5 mph - N/A   Clear
9:15 PM 60.8 °F - 23.0 °F 23% 29.97 in 10.0 mi Calm Calm - N/A   Clear
9:35 PM 60.8 °F - 21.2 °F 22% 29.97 in 10.0 mi SW 4.6 mph - N/A   Clear
9:55 PM 59.0 °F - 23.0 °F 25% 29.97 in 10.0 mi Calm Calm - N/A   Clear
10:15 PM 59.0 °F - 23.0 °F 25% 29.97 in 10.0 mi Calm Calm - N/A   Clear
10:35 PM 57.2 °F - 23.0 °F 27% 29.97 in 10.0 mi Calm Calm - N/A   Clear
10:55 PM 53.6 °F - 26.6 °F 35% 29.97 in 10.0 mi Calm Calm - N/A   Clear
11:15 PM 51.8 °F - 30.2 °F 44% 29.97 in 10.0 mi ENE 4.6 mph - N/A   Clear
11:35 PM 51.8 °F - 30.2 °F 44% 29.97 in 10.0 mi East 3.5 mph - N/A   Mostly Cloudy
11:55 PM 51.8 °F - 28.4 °F 41% 29.97 in 10.0 mi NNW 8.1 mph - N/A   Mostly Cloudy